STARLINK-5751, 55576

Orbit data source: Space-Track

STARLINK-5751, 55576 is a payload satellite owned by SpaceX/Seattle (US) in LEO that was launched on Sun, 12 Feb 2023 UTC via an FALCON 9 launch vehicle from the Air Force Eastern Test Range (AFETR). Payload-class satellites include a variety of spacecraft equipped with specific instruments for various scientific and technological missions. These include communications satellites like Starlink; space stations such as the ISS; scientific satellites like the Hubble; Earth observation satellites from companies like Planet Labs, Umbra, and HawkEye 360; GPS; miniature CubeSats for education and research; and military/defense satellites.

Loading next visibility...
Identifier
55576, 2023-020H
Orbit
LEO
Country
Flag of USUS
Related business
Manufacturer
SpaceX/Seattle
Mission
Operational Commercial Communications
Bus & Motor
STARLINK, Unknown motor
Mass
305 kg wet, ~290 kg dry
Launch date (UTC)
2023-02-12 (3 years ago)
Launch vehicle
FALCON 9
Launch site
Air Force Eastern Test Range (AFETR)
Object type
Payload
Rocket body
Debris
Shape & HBR
Box + 1 Pan, 10.1 m
Radar Cross Section
13.562 m², Large (>1 m²)

Expand to show TLE details & history
Last TLE update: 21 hours ago

TLE from 21 hours ago
0 STARLINK-5751
1 55576U 23020H   26061.59636140  .00000180  00000-0  28413-4 0  9995
2 55576  43.0045  17.0791 0001178 269.9366  90.1341 15.02531377168152
Epoch: 2026-03-02T14:18Z
TLE epoch observation values (Epoch: 2026-03-02T14:18:45.624Z)
Latitude
-0.00007°
Longitude
2.00143°
Altitude
558.874 km
Speed
7.584 km/s
True Right ascension
01h 08m 18s
True Declination
0° 00' 00"
Sunlit
Object was in daylight at epoch
Visualization orbit readout
Latitude
Unknown
Longitude
Unknown
Altitude
Unknown
Speed
Unknown
Apparent Right ascension
Unknown
Apparent Declination
Unknown
Sunlit
N/A
Visualization observer readout
Local Sidereal Time
14:48:17
Azimuth
Unknown
Elevation
Unknown
Doppler factor
Unknown
Orbital elements
Apogee altitude
561.834 km
Perigee altitude
560.2 km
Semi-major axis
6,939.154 km
Eccentricity
0.00012
Inclination
43.0045°
RAAN
17.0791°
Arg. of periapsis
269.9366°
True anomaly
90.1476°
Mean anomaly
90.1341°
Eccentric anomaly
90.14085°
Mean motion
3.75477 °/min
Orbital period
95.88 mins
BSTAR
0.000028413
Loading maneuver chart data...
Computing Atmospheric mass density...

Documentation

Showing up to 5 results
|